Flagstaff, AZ

8:31 AM MST on June 22, 2017 (GMT -0700)
Flagstaff Pulliam

Weather History for KFLG - July, 2014

Change the Weather History Date:

Sunday, July 13, 2014

  Actual Average Record
Temperature  
Mean Temperature 69 °F 66 °F  
Max Temperature 84 °F 82 °F 94 °F (1972)
Min Temperature 54 °F 51 °F 35 °F (1904)
Degree Days  
Heating Degree Days 0 1  
Month to date heating degree days 1 18  
Since 1 July heating degree days 1 18  
Cooling Degree Days 4 2  
Month to date cooling degree days 30 26  
Year to date cooling degree days 44 43  
Growing Degree Days 18 (Base 50)    
Moisture  
Dew Point 51 °F    
Average Humidity 60    
Maximum Humidity 93    
Minimum Humidity 26    
Precipitation  
Precipitation 0.01 in 0.08 in 1.55 in (1976)
Month to date precipitation 2.78 0.75  
Year to date precipitation 5.99 9.22  
Snow  
Snow 0.00 in 0.00 in 0.00 in (2002)
Month to date snowfall 0.0 0.0  
Since 1 July snowfall 0.0 0.0  
Snow Depth 0.00 in    
Sea Level Pressure  
Sea Level Pressure 30.02 in    
Wind  
Wind Speed 5 mph (ENE)    
Max Wind Speed 20 mph    
Max Gust Speed 25 mph    
Visibility 10 miles    
Events      
T = Trace of Precipitation, MM = Missing Value Source: NWS Daily Summary

Daily Weather History Graph

Daily Weather History Graph

Search for Another Location

Airport or City:

Trip Planner

Search our weather history database for the weather conditions in past years. The results will help you decide how hot, cold, wet, or windy it might be!

Date:

Astronomy

Jul. 13, 2014 Rise Set
Actual Time 5:22 AM MST 7:42 PM MST
Civil Twilight 4:53 AM MST 8:11 PM MST
Nautical Twilight 4:17 AM MST 8:46 PM MST
Astronomical Twilight 3:38 AM MST 9:25 PM MST
Moon 8:39 PM MST (7/13) 6:52 AM MST (7/13)
Length of Visible Light 15h 17m
Length of Day
14h 19m
Full, 97% of the Moon is Illuminated
Jul 13
Full
Jul 18
Last Quarter
Jul 26
New
Aug 3
First Quarter
Aug 10
Full

Hourly Weather History & Observations

Time (MST) Temp. Dew Point Humidity Pressure Visibility Wind Dir Wind Speed Gust Speed Precip Events Conditions
12:57 AM 57.9 °F 55.9 °F 93% 30.03 in 10.0 mi North 4.6 mph - N/A   Partly Cloudy
1:57 AM 57.0 °F 54.0 °F 89% 30.01 in 10.0 mi Calm Calm - N/A   Partly Cloudy
2:57 AM 57.0 °F 54.0 °F 89% 29.99 in 10.0 mi Calm Calm - N/A   Partly Cloudy
3:57 AM 57.9 °F 51.1 °F 78% 29.99 in 10.0 mi NNW 4.6 mph - N/A   Mostly Cloudy
4:57 AM 55.9 °F 51.1 °F 84% 30.01 in 10.0 mi Calm Calm - N/A   Clear
5:57 AM 57.0 °F 52.0 °F 83% 30.03 in 10.0 mi Calm Calm - N/A   Clear
6:57 AM 61.0 °F 54.0 °F 78% 30.08 in 10.0 mi Calm Calm - N/A   Clear
7:57 AM 66.9 °F 54.0 °F 63% 30.08 in 10.0 mi ENE 5.8 mph - N/A   Clear
8:57 AM 72.0 °F 53.1 °F 51% 30.07 in 10.0 mi ENE 5.8 mph - N/A   Clear
9:57 AM 73.9 °F 48.9 °F 41% 30.06 in 10.0 mi East 8.1 mph - N/A   Partly Cloudy
10:57 AM 75.9 °F 50.0 °F 40% 30.04 in 10.0 mi NE 10.4 mph - N/A   Scattered Clouds
11:57 AM 79.0 °F 46.9 °F 32% 30.03 in 10.0 mi East 8.1 mph - N/A   Clear
12:57 PM 81.0 °F 48.0 °F 31% 30.02 in 10.0 mi ENE 8.1 mph - N/A   Clear
1:57 PM 82.9 °F 46.9 °F 28% 30.00 in 10.0 mi ENE 8.1 mph - N/A   Clear
2:57 PM 82.0 °F 45.0 °F 27% 29.97 in 10.0 mi Variable 3.5 mph - N/A   Scattered Clouds
3:57 PM 79.0 °F 51.1 °F 38% 29.98 in 10.0 mi WSW 4.6 mph - N/A   Mostly Cloudy
4:57 PM 77.0 °F 51.1 °F 40% 29.99 in 10.0 mi SW 13.8 mph - N/A   Scattered Clouds
5:57 PM 73.9 °F 50.0 °F 43% 30.02 in 10.0 mi South 3.5 mph - N/A   Mostly Cloudy
6:57 PM 64.9 °F 55.0 °F 70% 30.04 in 10.0 mi SW 15.0 mph - 0.01 in   Clear
7:57 PM 64.9 °F 54.0 °F 68% 30.02 in 10.0 mi WNW 3.5 mph - N/A   Partly Cloudy
8:57 PM 66.9 °F 51.1 °F 57% 30.00 in 10.0 mi Calm Calm - N/A   Partly Cloudy
9:57 PM 63.0 °F 54.0 °F 72% 30.02 in 10.0 mi Calm Calm - N/A   Partly Cloudy
10:57 PM 62.1 °F 52.0 °F 70% 30.03 in 10.0 mi SSW 3.5 mph - N/A   Clear
11:57 PM 61.0 °F 51.1 °F 70% 30.04 in 10.0 mi WSW 3.5 mph - N/A   Clear